Tracking 19846 objects as of 19-Sep-2019
HD Live streaming from Space Station
objects crossing your sky now

OSCAR 8

Track OSCAR 8 now!
10-day predictions
OSCAR 8 is classified as:


NORAD ID: 10703
Int'l Code: 1978-026B
Perigee: 899.7 km
Apogee: 907.3 km
Inclination: 99.0 °
Period: 102.9 minutes
Semi major axis: 7274 km
RCS: 0.4491 m2 (medium)
Launch date: March 5, 1978
Source: United States (US)
Launch site: AIR FORCE WESTERN TEST RANGE (AFWTR)

Uplink (MHz): 145.850-145.900
Downlink (MHz): 29.400- 29.500
Beacon (MHz): 29.402
Mode: SSB CW
Call sign:
Status: Inactive


Uplink (MHz): 145.900-146.000
Downlink (MHz): 435.200-435.100
Beacon (MHz): 435.095
Mode: SSB CW
Call sign:
Status: Inactive

aabbcc
Your satellite tracking list
Your tracking list is empty




NASA's NSSDC Master Catalog

Two Line Element Set (TLE):
1 10703U 78026B   19261.47977862  .00000111  00000-0  10658-3 0  9999
2 10703  99.0036 214.9507 0005228 212.9795 254.7973 13.99262247119722
Source of the keplerian elements: AFSPC